RH
50 36 37 39 32 23 17 13 9 6 5 3 2 2 2 3 3 3 3 2 3 3 3 3 3 3 3 3 3 3 3 3 3 3 3 3 4 4 4 5 5 5 5 5 5 6 7 8 8 9 9 13 21 27 29 26 19 13 16 25 35 42 42
47 39 39 39 31 21 18 18 12 6 4 3 2 2 2 4 4 3 3 3 3 3 3 3 3 3 3 3 3 4 6 7 8 9 9 8 7 6 7 7 7 6 5 5 5 5 6 6 8 9 9 11 18 26 31 30 24 16 14 22 32 40 42
50 47 46 41 33 24 20 20 16 10 5 3 3 4 6 7 7 5 4 3 3 2 3 3 3 4 4 5 7 9 14 18 22 25 25 25 23 20 19 17 16 13 9 6 5 6 6 6 7 8 9 10 15 24 30 32 29 21 14 18 29 39 42
55 54 54 51 45 35 23 17 14 11 9 6 5 9 14 14 13 10 6 4 3 2 3 3 3 3 5 9 15 20 26 31 34 36 36 37 36 36 35 32 29 26 21 15 11 8 7 6 7 7 9 10 12 20 28 32 33 27 18 16 25 37 41
60 60 59 58 55 45 31 22 15 11 10 10 11 15 20 18 13 11 9 7 6 4 3 2 3 4 6 11 17 22 26 29 31 32 32 33 33 35 38 40 40 38 34 30 24 17 12 9 8 7 8 9 11 15 23 31 34 32 23 15 20 32 39
63 63 61 63 64 56 46 41 36 30 26 21 19 20 24 24 19 14 13 14 15 15 13 10 7 7 8 12 16 23 29 31 33 34 34 34 33 33 35 38 40 41 41 40 35 29 23 16 11 7 7 9 10 12 17 27 34 35 28 17 17 29 38
66 66 65 68 69 63 60 60 61 60 55 47 38 30 26 25 26 24 21 21 24 26 26 25 22 18 15 15 19 29 38 41 41 42 41 41 40 38 37 36 37 40 42 42 42 38 33 27 19 12 9 8 9 10 12 21 31 36 33 22 16 26 37
69 69 70 71 70 69 69 71 74 75 73 67 59 49 36 26 25 27 27 27 28 28 30 32 33 31 28 24 25 34 43 45 44 44 45 45 43 39 36 35 35 38 39 41 44 43 40 37 30 22 15 11 10 11 11 16 27 36 36 27 17 23 35
69 67 68 70 72 72 72 73 76 77 74 71 67 61 52 36 25 24 25 27 27 25 27 32 35 37 37 33 31 38 46 46 45 46 48 49 44 36 32 31 32 35 37 40 43 44 44 42 39 33 27 20 18 17 15 16 23 34 39 31 19 21 34
64 60 61 66 70 72 72 72 73 70 67 67 66 64 60 49 38 34 33 31 29 27 29 32 35 38 40 38 37 41 46 46 45 48 52 50 41 32 29 27 28 30 32 34 36 38 39 40 39 38 36 32 29 27 24 22 24 32 40 36 23 19 31
49 46 49 57 65 69 70 70 68 66 63 63 65 66 65 58 50 49 48 46 43 41 40 40 39 40 41 41 40 42 45 46 46 50 54 49 38 31 29 28 27 26 24 24 23 23 23 23 24 25 26 29 31 32 30 28 28 32 39 39 27 18 27
33 33 34 41 51 60 66 67 65 63 62 61 62 65 68 62 53 49 50 50 49 48 48 47 43 43 44 44 42 42 45 46 48 56 59 49 37 33 32 31 28 24 20 17 15 14 13 13 13 14 16 19 22 25 28 28 28 31 36 38 29 18 22
24 28 28 30 34 43 52 58 61 60 59 58 58 61 66 63 55 49 46 45 46 47 48 48 45 44 45 45 43 43 46 48 53 63 62 48 38 38 39 37 33 28 24 20 18 18 19 19 18 18 19 19 19 20 21 22 22 26 31 35 29 18 19
14 20 25 27 27 30 37 45 51 53 53 53 52 57 64 63 56 50 45 42 42 42 44 46 45 44 46 47 45 44 47 51 58 68 65 48 39 42 44 42 37 32 29 26 25 27 27 26 25 24 22 22 22 22 22 21 22 25 31 33 27 18 18
6 10 15 19 20 19 24 30 35 37 39 43 47 54 62 63 57 52 47 40 33 34 41 45 44 45 47 48 47 47 51 56 63 70 66 49 41 45 47 43 38 32 29 30 33 36 36 36 34 31 27 25 24 24 23 22 21 23 29 30 24 18 18
3 4 5 8 9 10 12 15 17 21 26 36 46 55 63 66 60 55 50 41 33 35 44 48 47 47 48 49 51 53 57 61 65 70 65 50 43 47 47 42 37 34 33 36 43 45 46 48 45 41 36 30 26 24 23 22 22 22 24 25 20 17 17
3 3 3 3 4 4 5 5 6 10 15 26 37 46 57 64 58 48 41 36 37 45 53 56 55 52 51 54 60 61 62 64 66 67 63 50 44 48 48 43 41 41 41 43 47 50 52 55 53 50 47 39 31 26 23 22 24 24 25 23 19 16 16
4 3 3 3 3 3 3 3 3 4 8 14 18 25 37 46 47 45 39 33 36 43 52 60 63 61 60 64 66 63 62 66 66 65 60 50 45 48 49 46 46 49 52 51 52 54 56 56 56 55 54 48 39 32 27 24 25 25 26 25 21 19 17
4 4 3 3 3 3 3 3 3 3 4 6 8 13 20 22 30 45 50 43 37 35 40 52 60 63 65 64 62 59 60 62 63 62 58 50 46 48 50 50 51 54 58 59 60 61 60 59 58 57 57 56 48 38 31 28 26 25 25 25 24 22 20
5 5 5 5 5 5 4 4 3 3 3 4 5 10 14 14 23 40 50 49 44 36 37 44 50 56 60 58 55 54 54 55 56 56 53 49 48 50 51 53 55 56 59 60 61 63 63 63 62 58 57 59 57 49 38 31 30 28 26 25 25 23 22
6 6 6 6 6 7 6 5 5 4 3 4 5 7 12 21 32 40 45 51 53 47 42 41 40 41 44 45 47 50 52 54 54 53 52 52 53 54 55 57 57 57 58 58 59 63 65 67 67 63 59 58 60 60 50 37 32 32 31 30 28 25 22
8 8 7 8 8 8 7 7 6 6 5 4 4 5 10 20 30 37 44 52 57 56 51 45 39 33 29 29 33 40 47 53 55 54 53 55 58 60 59 59 59 58 58 59 61 64 65 65 65 63 61 61 62 63 59 48 38 35 38 40 38 29 22
10 9 9 9 9 9 9 8 8 8 7 6 5 5 7 12 18 29 42 51 54 56 55 53 49 44 38 31 27 33 45 52 55 55 56 58 62 64 64 64 62 61 60 61 64 67 67 67 67 65 63 62 61 60 60 55 47 41 44 51 50 39 27
11 11 10 10 10 9 9 10 9 9 8 7 6 6 6 8 9 17 34 47 52 54 57 58 58 56 50 41 34 40 51 57 60 61 61 61 61 61 63 65 65 65 64 63 65 66 67 68 69 68 66 64 63 62 62 61 55 47 46 52 57 51 39
12 12 12 11 11 10 10 11 10 10 10 8 7 6 6 8 7 9 23 39 47 50 55 60 62 59 51 43 41 46 50 53 59 64 63 63 63 63 64 66 67 69 69 68 67 68 70 69 66 66 67 67 68 70 71 71 68 60 50 48 54 58 51
15 14 14 13 13 12 11 12 11 12 11 10 9 8 6 7 7 7 15 29 39 44 51 59 61 55 46 42 45 49 49 49 53 57 59 62 65 67 69 68 69 71 71 70 69 68 69 68 67 67 67 64 63 65 71 75 76 71 63 54 52 56 57
17 16 16 15 15 14 13 13 12 12 13 12 11 10 8 7 7 7 10 20 33 43 49 54 56 52 45 44 47 49 50 48 48 51 57 64 67 68 68 65 65 68 72 71 70 70 72 71 68 65 60 55 51 52 58 64 65 63 65 64 59 57 59
19 19 18 17 16 16 14 14 14 13 14 13 12 11 10 8 7 8 8 12 25 38 44 48 53 53 49 48 49 49 48 46 45 47 52 58 62 64 62 56 54 57 63 61 57 58 62 61 56 50 46 43 40 36 37 43 45 44 50 62 66 63 62
23 21 20 19 18 18 16 16 15 14 14 15 14 13 12 9 8 8 8 9 16 26 36 48 59 62 58 54 53 53 54 54 52 53 55 56 58 57 54 50 46 45 47 46 40 37 38 39 37 35 35 34 33 31 30 32 34 34 39 54 67 67 64
26 24 23 21 20 19 19 18 17 16 16 16 16 15 13 12 10 9 9 11 13 18 27 42 56 64 65 62 57 53 52 50 49 53 59 63 62 57 51 47 44 41 39 39 37 33 31 30 30 30 31 30 30 32 32 29 30 34 39 51 65 70 67
25 25 25 24 22 21 21 20 19 18 17 17 17 17 16 14 13 11 10 11 13 15 21 31 42 52 57 59 57 55 53 50 47 45 47 51 52 50 47 45 43 41 40 38 38 37 35 35 35 33 33 33 32 33 36 36 38 42 45 52 59 63 66
23 25 25 25 24 23 22 22 22 21 20 19 18 17 17 16 15 14 13 13 13 13 15 20 28 36 41 45 47 49 49 48 45 41 38 40 42 43 43 42 40 40 40 39 40 40 39 40 39 34 33 36 39 42 47 51 53 53 53 55 57 59 63
21 23 24 25 25 24 23 23 23 23 23 22 20 19 18 18 18 17 17 16 15 15 14 16 18 21 25 28 31 32 33 33 33 33 32 33 36 38 38 38 39 41 39 37 39 41 41 42 42 41 41 45 51 55 57 60 63 60 53 49 52 57 62
23 22 23 25 26 26 25 24 24 24 24 24 23 22 20 20 19 19 19 19 18 18 18 17 18 18 19 21 22 23 25 26 27 28 29 29 31 33 34 34 38 40 36 34 36 38 37 39 42 45 50 54 59 64 65 60 57 54 46 40 42 48 52
25 24 23 24 25 26 27 26 25 25 25 25 24 24 23 22 22 21 22 21 20 20 20 19 19 21 22 22 22 21 22 23 24 25 27 28 29 31 32 32 33 33 30 29 32 33 33 33 34 37 42 45 48 55 60 55 50 49 49 45 41 39 38
29 27 24 24 25 25 26 26 26 26 25 25 24 24 23 23 24 24 23 24 23 23 22 22 21 21 22 21 21 21 21 22 22 22 23 26 27 29 30 30 30 29 28 28 31 31 31 32 31 31 34 34 34 37 42 44 43 44 47 46 39 32 31
30 29 28 26 26 26 25 25 26 26 27 26 25 25 25 25 25 25 25 25 26 26 25 24 23 22 22 22 22 22 22 22 22 22 22 24 26 27 28 28 29 31 31 32 33 33 32 31 31 31 32 32 33 34 34 34 35 37 40 39 35 31 32
30 30 30 30 30 29 28 28 28 27 28 29 28 28 29 29 28 29 27 26 26 26 26 26 26 25 26 26 26 25 25 24 25 26 27 27 28 29 31 32 34 35 36 35 35 35 35 35 34 34 35 36 37 38 36 34 34 35 35 34 32 32 34
Wind_Speed
29 28 27 26 25 25 24 23 24 24 24 24 23 22 22 21 21 21 22 22 23 23 23 22 22 22 21 21 21 20 19 19 18 18 18 17 17 17 17 17 18 18 19 19 18 16 14 13 12 11 9 8 6 6 7 8 7 7 8 9 10 11 10
30 28 28 27 26 25 25 24 25 26 26 26 25 25 23 22 22 21 22 22 23 23 22 22 22 22 22 22 22 21 20 19 18 18 18 17 17 18 18 17 17 17 18 18 18 17 16 15 14 13 12 10 9 7 8 9 9 8 9 9 10 12 12
30 28 28 27 25 25 24 24 25 26 26 26 26 25 24 23 22 22 22 23 23 23 23 22 22 22 22 22 22 21 20 19 19 18 18 18 19 19 18 18 18 18 17 17 18 18 17 16 15 15 14 13 11 10 10 10 10 10 9 10 11 12 12
31 29 28 26 25 24 24 24 24 25 25 25 26 25 24 23 23 22 22 23 24 24 23 22 22 22 23 23 23 22 21 21 20 20 20 20 20 19 19 19 19 19 18 18 18 18 17 17 16 16 16 15 14 12 11 12 12 11 11 11 12 12 12
32 31 29 27 25 24 22 21 21 22 22 22 23 24 24 24 24 24 24 24 24 23 23 23 24 24 24 23 22 22 22 21 21 20 20 20 21 20 20 20 21 21 20 20 20 19 18 18 17 17 17 17 16 15 14 13 13 13 12 12 12 13 13
34 32 30 28 26 24 21 19 18 18 18 19 21 22 24 25 25 25 25 25 24 23 23 23 24 24 23 23 22 22 21 21 20 19 19 20 20 20 21 22 23 23 22 22 21 20 20 19 18 18 18 18 18 17 16 15 15 15 15 14 14 13 13
35 33 31 29 28 25 22 20 18 17 17 19 21 23 25 26 26 26 26 26 25 24 23 22 22 23 23 23 22 22 21 20 20 20 20 20 20 20 21 22 23 24 24 23 22 22 21 20 20 19 19 20 19 18 18 17 16 17 16 16 15 15 14
35 33 32 31 29 26 24 23 21 19 19 20 22 23 25 26 26 27 26 25 25 25 24 22 21 21 22 23 23 22 22 21 21 21 20 20 20 20 21 22 23 24 24 23 23 23 23 22 22 21 20 21 21 20 19 18 18 17 18 17 17 16 15
36 33 31 31 31 28 27 26 25 24 23 23 23 24 25 26 26 26 26 26 27 26 25 24 22 21 21 22 22 23 23 22 21 21 20 19 19 20 20 21 22 23 23 23 24 24 23 23 23 23 22 22 22 21 20 19 19 19 19 19 19 18 17
37 34 33 33 33 31 31 30 29 28 27 26 25 25 25 26 26 26 26 28 28 28 27 26 25 23 22 21 23 24 24 22 21 21 20 19 19 19 19 19 19 20 20 21 22 22 23 23 24 24 23 23 23 23 22 21 21 21 20 20 20 20 18
39 36 35 36 36 35 35 35 34 33 30 28 27 26 26 26 26 25 26 27 28 29 28 28 27 25 23 23 24 24 23 22 22 20 19 19 19 18 18 18 17 17 17 17 18 19 20 21 21 22 22 23 24 25 24 23 23 23 22 22 22 21 20
40 38 37 37 38 38 39 39 38 36 32 30 29 28 27 28 27 25 24 26 27 28 30 30 29 26 24 24 24 23 22 22 21 20 20 20 19 19 18 17 15 14 14 14 14 14 14 14 15 15 17 20 22 24 25 25 25 25 23 23 22 22 21
42 40 39 39 39 40 41 41 40 37 35 33 33 31 30 31 30 27 25 25 25 27 30 31 31 28 26 25 24 22 22 22 21 20 21 20 20 19 18 16 13 12 12 11 10 10 9 9 9 10 11 13 15 18 21 22 22 22 22 22 22 22 22
41 41 41 41 41 41 41 41 40 39 38 37 36 35 34 33 31 29 28 26 25 27 29 31 31 30 28 27 25 22 21 21 21 22 22 22 21 20 18 15 13 12 11 9 7 6 6 6 7 8 9 10 10 12 14 15 15 16 18 19 20 21 22
38 41 43 43 43 42 41 41 41 40 38 37 37 37 35 33 32 30 28 26 25 25 27 30 32 31 29 27 24 21 21 22 23 23 23 23 22 21 18 16 14 13 11 8 6 5 4 5 6 7 9 10 11 11 12 11 11 12 15 18 19 20 23
33 36 40 42 43 43 42 42 42 41 38 37 37 38 36 34 32 30 28 26 24 23 24 27 30 31 29 27 23 22 22 23 24 24 24 24 23 22 19 18 16 14 11 9 8 6 6 6 7 8 9 10 11 13 13 13 12 12 15 18 18 20 22
29 30 33 36 39 40 41 41 40 40 39 38 38 38 37 35 33 30 28 26 24 23 23 26 28 30 29 25 23 22 23 23 25 25 25 25 24 23 21 19 17 15 13 11 10 9 9 9 10 10 10 11 11 13 14 14 14 13 15 18 19 19 21
28 28 28 28 29 32 34 35 35 37 39 39 38 38 37 36 33 30 27 25 24 24 24 25 27 28 28 25 24 23 22 24 26 27 26 26 25 24 22 21 19 17 15 14 13 13 13 13 13 14 13 13 13 14 14 14 14 15 16 18 20 20 20
26 27 26 25 24 25 27 28 29 32 35 36 37 37 37 37 34 29 25 25 25 25 25 24 25 27 27 26 25 24 24 25 27 27 26 26 26 25 25 23 21 19 18 17 17 18 18 18 18 18 17 16 16 16 15 15 15 16 18 20 21 21 21
27 27 26 25 24 24 24 24 24 26 28 30 32 34 35 34 32 29 27 26 25 24 23 22 23 25 26 26 25 25 25 26 26 26 26 26 27 27 27 25 23 22 21 20 20 20 21 21 21 21 20 20 19 18 18 16 15 16 19 21 23 24 23
29 28 28 27 25 24 24 23 22 22 23 24 26 28 30 30 30 29 28 27 25 23 23 22 22 23 24 25 25 25 25 25 25 25 25 26 27 27 27 26 25 24 24 23 22 22 22 23 24 24 23 23 23 22 20 18 17 18 19 21 23 25 25
31 31 30 29 27 26 25 24 23 22 22 22 23 25 27 29 30 30 29 28 25 24 24 24 23 22 22 22 23 24 25 24 24 24 24 24 25 25 25 26 26 25 25 25 25 25 24 25 25 26 26 26 26 24 22 21 21 21 20 22 24 27 28
34 33 33 31 29 28 27 26 24 23 23 23 23 24 26 28 29 30 30 30 27 25 25 26 25 24 23 22 22 24 25 24 24 23 23 24 25 25 26 26 27 27 27 26 26 26 27 27 28 28 29 29 28 27 25 24 24 23 23 24 26 28 29
37 36 36 34 32 30 29 27 26 25 25 25 25 25 26 27 29 30 31 31 29 26 26 27 26 26 24 23 23 25 26 25 25 24 24 26 26 26 26 27 28 28 28 28 28 28 29 30 30 30 31 31 30 29 29 28 28 27 27 27 29 30 31
39 39 38 37 35 33 32 30 29 27 27 27 27 27 27 28 29 30 31 32 31 29 28 27 27 27 26 25 25 26 25 25 27 28 29 29 28 27 28 29 30 31 31 31 30 30 31 33 33 32 32 32 32 33 32 32 32 32 31 31 31 33 33
40 40 40 39 38 36 35 34 32 30 30 29 29 29 29 29 29 30 32 33 33 30 28 28 29 29 28 26 26 25 24 26 28 30 29 28 27 28 30 31 32 33 35 36 36 35 35 35 34 34 33 34 34 35 34 34 34 35 36 36 35 35 35
41 40 40 40 39 39 38 36 35 33 32 32 31 31 31 30 30 31 32 34 34 32 30 31 32 31 30 28 27 26 25 26 27 28 28 28 28 29 31 32 31 32 34 37 39 40 39 38 36 36 36 36 36 35 34 34 34 34 36 38 39 38 38
41 41 41 40 40 39 39 38 36 35 34 33 33 32 32 32 32 33 33 33 34 33 32 32 33 33 32 30 29 28 27 28 28 28 30 31 30 32 34 33 33 33 34 35 37 38 39 39 39 38 38 38 38 36 35 34 34 34 34 36 41 42 41
41 42 41 40 40 39 39 38 37 36 35 34 34 34 34 33 34 34 34 34 34 34 34 34 34 35 35 33 32 32 31 31 32 33 34 35 34 35 36 36 36 36 37 38 38 38 39 39 39 40 40 40 40 39 38 37 37 36 34 33 37 42 44
41 42 42 42 41 40 39 38 37 37 36 35 34 35 35 34 34 35 35 36 36 35 35 35 35 36 37 37 36 36 35 35 36 37 38 39 39 39 39 39 39 39 39 40 40 42 42 42 42 42 42 43 43 43 42 41 39 38 36 33 34 39 43
41 42 42 42 42 41 40 39 38 37 37 36 36 35 35 35 35 36 36 37 38 38 37 37 37 38 39 39 39 39 40 40 39 40 41 41 42 43 42 41 41 41 40 41 42 43 44 45 45 46 45 45 45 44 44 44 41 38 37 36 35 36 40
40 41 42 43 43 43 42 40 39 38 38 37 37 36 36 36 37 37 37 38 39 39 40 40 40 41 41 42 42 43 43 43 43 43 43 43 44 45 44 43 43 43 42 42 43 44 45 46 48 49 48 48 47 46 45 46 44 42 41 40 40 40 41
42 41 41 42 43 43 43 42 40 39 38 38 38 38 38 38 38 38 38 38 38 39 40 41 42 42 43 43 44 44 45 44 44 44 44 44 45 45 44 44 44 43 43 44 45 45 46 48 49 50 51 50 50 49 49 48 47 47 47 45 44 44 45
43 42 42 42 42 42 42 41 40 39 38 38 38 38 39 39 39 39 39 39 39 40 40 42 42 42 43 43 44 45 45 44 44 44 44 45 45 45 44 43 43 44 45 46 46 47 49 49 50 51 52 52 53 53 53 52 51 51 51 49 47 47 48
45 44 43 42 41 41 40 40 39 38 38 38 38 38 39 39 40 41 41 41 41 41 41 42 42 43 44 44 45 45 45 45 45 45 45 46 46 46 45 45 45 47 47 48 48 49 50 51 51 51 52 53 54 55 56 55 53 53 54 54 52 51 51
47 46 45 44 43 42 41 40 39 39 38 39 39 38 38 39 39 40 41 42 42 42 42 42 44 45 45 46 46 46 47 47 48 47 47 47 48 48 48 48 48 48 49 49 49 50 51 52 53 53 54 56 56 56 57 57 55 54 56 58 57 56 56
48 47 47 46 45 44 44 43 42 41 40 39 39 38 38 37 38 39 40 41 41 41 42 43 44 45 46 46 46 46 47 48 48 48 48 49 49 50 50 50 49 49 49 50 50 51 53 54 55 56 57 58 59 59 58 58 58 57 59 61 60 60 61
50 49 48 48 47 46 45 45 44 43 41 40 40 39 38 38 38 38 39 40 41 42 43 44 44 45 45 46 46 46 46 46 47 47 48 48 48 48 48 48 48 49 51 52 53 55 56 57 58 59 59 60 62 62 62 61 62 62 63 63 64 64 65
Wind_Direction
204 203 201 201 201 201 198 195 194 195 193 191 191 195 197 198 199 201 204 205 205 205 204 204 205 205 206 209 212 211 208 206 205 207 210 215 220 224 227 229 231 234 238 241 244 246 249 250 251 252 251 254 269 286 294 299 295 277 267 269 273 276 279
209 207 205 205 205 204 202 198 197 197 196 192 191 195 197 199 201 203 206 208 209 209 207 207 207 207 208 211 214 215 214 212 211 211 213 216 221 226 230 232 233 235 237 240 244 248 251 252 253 254 254 253 260 275 284 290 292 280 266 265 271 274 277
212 210 209 209 209 208 206 204 202 201 200 197 195 195 195 197 200 201 204 206 208 209 209 209 210 211 213 215 217 218 219 219 218 218 219 221 224 228 232 236 238 239 239 240 242 245 250 253 253 255 255 253 254 264 276 285 289 283 267 260 266 271 274
214 212 212 211 209 211 211 210 209 207 206 203 200 197 195 197 199 199 200 203 205 206 207 210 212 214 218 220 221 223 224 225 225 225 226 228 231 233 236 239 242 244 244 244 244 245 247 250 252 255 256 255 254 257 267 279 286 284 270 258 259 266 271
214 213 213 211 211 213 215 216 215 214 213 210 207 203 200 201 202 199 199 201 203 204 206 209 212 215 219 222 224 227 230 231 232 233 234 236 238 240 241 242 244 246 247 247 248 247 247 248 250 252 253 255 255 254 259 272 283 284 274 259 254 260 265
214 214 214 211 212 215 215 215 216 217 216 215 215 212 208 207 205 203 203 203 205 207 210 213 216 218 222 224 227 230 233 236 238 240 242 243 244 246 246 246 247 248 248 249 250 251 250 250 250 250 251 253 254 253 255 263 275 282 277 262 252 254 260
214 215 215 213 214 216 215 213 214 217 217 217 218 217 215 213 209 209 209 208 209 212 215 219 222 224 225 228 229 231 233 236 238 240 244 246 249 250 251 251 251 251 250 250 252 253 253 253 252 251 250 252 253 252 252 256 266 276 278 266 253 251 255
213 215 216 215 216 217 214 209 209 214 220 223 223 220 220 218 215 215 216 216 218 218 219 223 227 230 232 232 232 232 233 234 237 242 247 250 252 253 253 254 254 254 253 252 253 253 255 256 256 254 252 253 253 252 251 253 259 270 275 268 254 248 251
212 214 215 215 216 215 211 207 207 212 219 226 229 227 224 221 219 220 222 225 228 227 226 227 229 231 235 235 234 232 233 236 240 246 250 253 255 255 254 253 252 254 255 255 254 255 257 259 260 259 258 258 258 257 255 254 257 264 271 267 254 247 248
212 214 214 213 214 212 209 208 211 216 220 223 230 235 233 227 222 222 226 230 233 235 236 235 232 230 232 235 235 233 235 239 244 248 251 253 255 254 252 251 249 250 253 255 256 258 259 260 262 263 263 263 263 263 260 257 257 261 265 264 255 245 245
214 216 214 212 212 211 210 211 214 220 223 224 228 235 240 239 231 227 230 233 236 239 241 242 240 235 232 233 235 234 236 241 246 250 252 253 253 252 251 250 250 251 251 253 256 259 260 262 264 265 264 264 263 263 262 260 258 259 261 261 254 245 242
215 217 215 212 212 212 212 215 218 222 225 226 227 231 238 243 242 238 237 238 238 239 240 242 243 241 237 236 236 236 238 243 249 252 252 251 251 250 250 250 250 250 248 249 252 255 259 262 263 263 262 262 262 263 264 263 261 261 260 259 254 247 243
213 216 217 215 214 214 215 218 221 223 224 226 227 228 233 241 246 247 247 247 245 242 240 240 242 242 239 238 239 238 238 244 249 250 249 248 247 246 247 247 245 241 239 241 245 250 255 260 264 264 263 264 265 265 264 264 263 262 259 257 255 250 245
213 214 216 218 217 217 218 219 221 224 224 225 227 226 229 237 244 248 251 253 251 248 243 240 240 240 238 238 239 238 239 243 246 246 245 244 243 244 246 245 240 234 233 233 237 246 257 268 274 276 274 273 273 270 267 266 264 262 261 261 259 253 247
213 213 216 219 221 221 221 221 222 224 224 224 226 225 225 233 240 244 249 253 253 251 247 243 240 239 236 235 236 236 237 241 243 243 242 242 243 245 246 244 239 235 231 227 231 242 263 283 292 292 288 283 278 274 272 269 266 266 266 266 264 256 248
213 214 215 219 223 224 224 223 223 224 222 221 223 224 224 230 236 240 244 249 252 250 248 244 242 240 238 236 233 233 234 237 240 240 239 240 242 243 243 242 240 237 231 227 234 245 259 276 288 294 294 292 285 279 275 271 270 268 267 267 264 257 250
215 214 214 217 222 224 226 227 226 225 223 221 222 224 225 229 234 238 240 245 250 250 248 245 242 241 239 235 230 229 230 234 237 237 236 237 239 240 241 241 240 239 236 235 240 247 257 267 275 279 283 286 285 281 277 273 271 268 266 266 264 258 253
219 218 216 216 219 223 225 227 227 226 225 224 225 226 227 230 234 238 240 243 247 247 246 244 241 239 237 232 227 225 226 230 233 234 235 235 236 237 239 240 239 239 241 244 248 252 257 262 266 269 271 273 275 277 276 273 270 268 264 263 262 260 256
219 220 219 216 217 220 222 223 223 223 224 225 226 227 229 232 234 237 240 242 244 245 244 242 239 236 233 229 224 221 221 225 228 230 233 234 234 235 237 238 237 237 239 243 248 253 258 262 264 266 269 270 269 269 270 270 268 266 264 263 262 259 256
221 221 222 222 222 223 225 226 227 225 225 225 225 226 228 232 233 234 236 240 244 246 246 242 238 234 230 226 221 218 219 222 223 225 229 231 232 233 234 235 235 234 236 239 243 249 257 263 266 267 267 268 267 265 265 266 266 265 266 267 265 262 258
226 226 228 230 231 231 232 233 235 235 233 230 227 225 226 228 230 231 232 236 243 247 246 243 240 236 231 226 221 218 219 221 221 223 227 229 231 232 233 234 235 236 238 240 242 245 252 259 264 266 266 266 268 267 264 261 260 262 264 268 269 267 262
232 232 233 234 234 235 235 236 237 239 238 236 232 229 228 227 228 229 230 233 239 245 246 245 245 244 242 238 233 229 226 225 225 226 228 231 232 234 236 238 240 241 243 244 244 245 249 253 258 262 264 264 265 266 263 257 255 257 261 267 270 269 265
235 236 236 236 235 235 234 235 236 238 240 239 236 233 231 230 229 229 229 232 236 243 248 249 249 250 252 253 249 240 234 232 231 231 232 234 235 237 240 243 245 247 248 247 248 250 253 255 256 257 259 261 263 265 263 258 253 252 256 264 268 268 267
233 235 236 236 235 234 233 233 235 237 239 241 240 236 234 234 232 229 229 231 234 239 246 252 254 255 257 259 252 241 237 237 237 237 238 239 239 241 243 246 249 252 253 251 251 253 255 257 257 257 258 261 266 270 271 267 261 256 253 256 262 266 267
231 233 234 235 235 234 233 232 234 235 237 239 240 240 237 236 235 232 229 229 232 235 241 249 254 257 258 256 250 245 243 242 241 241 242 243 246 248 250 252 253 254 256 255 255 256 257 259 261 263 265 268 272 274 276 275 272 266 259 255 258 263 265
232 233 234 235 236 235 234 233 233 234 235 236 237 239 239 238 237 235 231 230 231 233 237 243 248 252 253 253 251 251 251 249 247 246 247 250 254 257 257 258 259 260 261 260 259 258 259 261 265 268 272 274 275 274 275 275 276 273 267 260 257 260 262
233 234 235 236 236 237 236 235 233 233 234 235 235 235 237 238 238 238 235 233 232 233 235 239 243 247 251 253 253 252 251 250 249 249 251 254 257 258 260 261 263 266 266 264 262 260 261 263 267 270 272 273 274 274 273 274 276 277 273 265 260 259 262
233 234 235 236 236 237 238 238 236 233 232 234 235 235 235 236 238 239 238 236 234 233 235 238 241 246 249 250 252 252 252 251 250 248 248 250 252 257 260 263 265 267 268 268 266 264 263 264 267 270 271 272 272 273 274 276 277 280 279 272 264 260 261
232 234 235 236 237 238 239 239 239 236 233 232 234 235 235 235 236 238 240 239 236 235 236 238 241 245 248 251 253 254 256 257 257 256 255 254 255 258 261 264 267 269 270 270 270 269 267 268 270 271 273 274 275 276 277 278 277 277 278 275 267 262 262
231 233 235 236 237 239 240 240 241 241 238 236 234 234 235 236 236 237 239 240 239 237 237 237 239 243 246 250 252 254 256 259 261 261 260 260 260 261 263 266 268 270 271 270 271 271 272 273 275 276 278 279 279 279 279 279 277 274 273 273 268 264 264
231 233 234 236 237 238 239 240 241 243 243 241 239 236 236 236 237 238 238 239 240 240 239 239 240 241 244 247 250 252 255 256 258 260 260 260 261 262 264 266 267 269 271 272 273 274 277 279 280 281 282 281 280 280 279 279 277 273 270 268 267 267 268
232 233 234 236 237 238 239 239 240 242 244 244 242 239 237 236 237 239 239 240 241 242 242 242 243 243 244 247 249 251 253 255 257 258 258 258 259 261 263 266 268 271 273 275 276 278 280 282 283 283 283 281 279 279 278 278 277 275 272 270 269 270 270
235 234 235 237 238 239 241 241 240 240 242 244 243 241 239 238 239 240 241 242 242 243 243 244 245 246 247 249 251 252 254 255 256 257 258 259 261 262 265 268 270 272 274 276 277 278 278 279 279 280 280 280 279 278 277 276 277 276 276 274 274 273 272
237 237 237 238 239 241 242 243 243 242 242 243 244 244 243 242 242 242 244 244 244 245 245 245 246 247 249 250 252 254 256 257 259 260 261 262 263 265 267 269 270 271 274 275 275 274 275 274 274 274 275 276 276 277 276 276 276 276 278 278 276 275 272
240 239 239 239 241 241 243 244 245 245 244 244 244 245 246 246 245 244 244 245 246 246 247 248 249 249 250 252 253 255 258 259 260 261 262 263 265 266 268 269 270 271 271 271 270 270 271 271 271 271 270 271 272 272 274 275 275 277 279 278 275 273 271
242 242 242 242 242 242 243 244 245 246 247 247 246 247 247 247 246 245 244 245 246 247 248 250 251 252 253 254 255 257 258 260 261 262 262 263 265 266 267 269 270 269 269 269 268 268 268 268 269 269 269 269 270 270 272 273 274 275 275 275 275 275 274
243 244 245 245 245 245 245 245 246 247 248 249 248 248 247 246 246 246 245 245 246 247 248 249 250 251 253 254 255 256 258 259 261 262 263 263 264 265 266 266 267 268 268 269 270 270 270 269 269 270 271 272 273 273 274 275 276 275 274 274 275 275 274
243 245 246 247 247 248 248 248 248 248 248 249 249 248 246 245 245 246 246 245 245 246 247 248 249 251 252 253 255 256 256 258 259 260 261 262 262 262 262 262 264 266 268 270 271 271 272 272 272 272 273 274 274 275 276 276 277 276 275 275 275 274 273